Voltar ao catálogo

STARLINK-31665

AtivoComunicaçõesVLEO
NORAD 59655·PAYLOAD·🇺🇸 United States

Lançado May 6, 2024 de Cape Canaveral Space Force Station

Loading…

Próximas Passagens (próximas 24 horas)

TLE

AtualizadoSource: CelesTrak SupGP

Época: Sep 14, 2026, 22:17 UTC

1 59655C 24084B   26257.92895833  .00057465  00000+0  20812-2 0  2575
2 59655  43.0010  49.5617 0001515 274.6721 153.4318 15.27552072    15

Acompanhe STARLINK-31665 em tempo real com AllMySat

Download on the App Store